Location: Winthrop
(48.4780°N, 120.1850°W)
Time: 20:22:22
(UTC-07:00)

Explorer 7 - Pass Details

Date: 07 February 2023
Orbit: 478 x 657 km, 50.3° (Epoch: 25 March)

Event Time Altitude Azimuth Distance (km) Brightness Sun altitude
Rises 12:58:36 0° 273° (W) 2,693 10.5 25.6°
Reaches altitude 10° 13:00:47 10° 276° (W) 1,831 9.6 25.5°
Maximum altitude 13:04:57 68° 359° (N) 626 7.2 25.4°
Drops below altitude 10° 13:09:24 10° 83° (E) 1,949 9.5 25.2°
Sets 13:11:47 0° 86° (E) 2,884 10.3 25.1°
